STARLINK-1723, 46333

Orbit data source: Space-Track

STARLINK-1723, 46333 is a payload satellite owned by SpaceX/Seattle (US) in LEO that was launched on Thu, 03 Sep 2020 UTC via an FALCON 9 launch vehicle from the Air Force Eastern Test Range (AFETR). Payload-class satellites include a variety of spacecraft equipped with specific instruments for various scientific and technological missions. These include communications satellites like Starlink; space stations such as the ISS; scientific satellites like the Hubble; Earth observation satellites from companies like Planet Labs, Umbra, and HawkEye 360; GPS; miniature CubeSats for education and research; and military/defense satellites.

Loading next visibility...
Identifier
46333, 2020-062J
Orbit
LEO
Country
Flag of USUS
Related business
Manufacturer
SpaceX/Seattle
Mission
Partially operational Commercial Communications
Bus & Motor
STARLINK, Unknown motor
Mass
260 kg wet, ~248 kg dry
Launch date (UTC)
2020-09-03 (5 years ago)
Launch vehicle
FALCON 9
Launch site
Air Force Eastern Test Range (AFETR)
Object type
Payload
Rocket body
Debris
Shape & HBR
Box + 1 Pan, 10.1 m
Radar Cross Section
13.562 m², Large (>1 m²)

Expand to show TLE details & history
Last TLE update: 8 hours ago

TLE from 8 hours ago
0 STARLINK-1723
1 46333U 20062J   25311.00003472  .00076185  00000-0  18719-2 0  9992
2 46333  53.0539 204.9295 0001806 101.6592 119.1763 15.40000481  5811
Epoch: 2025-11-07T00:00Z
TLE epoch observation values (Epoch: 2025-11-07T00:00:02.999Z)
Latitude
-31.72705°
Longitude
6.00929°
Altitude
456.514 km
Speed
7.638 km/s
True Right ascension
03h 29m 53s
True Declination
-31° 33' 60"
Sunlit
Object was in full shadow at epoch
Visualization orbit readout
Latitude
Unknown
Longitude
Unknown
Altitude
Unknown
Speed
Unknown
Apparent Right ascension
Unknown
Apparent Declination
Unknown
Sunlit
N/A
Visualization observer readout
Local Sidereal Time
04:04:48
Azimuth
Unknown
Elevation
Unknown
Doppler factor
Unknown
Orbital elements
Apogee altitude
447.615 km
Perigee altitude
445.15 km
Semi-major axis
6,824.52 km
Eccentricity
0.00018
Inclination
53.0539°
RAAN
204.9295°
Arg. of periapsis
101.6592°
True anomaly
119.19437°
Mean anomaly
119.1763°
Eccentric anomaly
119.18533°
Mean motion
3.84977 °/min
Orbital period
93.51 mins
BSTAR
0.0018719
Loading maneuver chart data...
Computing Atmospheric mass density...
Loading historical data...
Loading historical data...
Loading historical data...
Loading historical data...
Loading historical data...
Loading historical data...
Loading historical data...

Documentation

Showing up to 5 results
|